Wind_Speed
21 21 21 21 21 21 21 21 20 20 19 19 19 19 19 19 19 18 18 18 18 18 18 18 18 18 18 18 18 18 18 18 18 18 17 17 17 17 17 18 18 18 19 20 20 21 21 21 22 22 22 23 23 23 23 23 23 23 22 23 24 22 22 22 21 21 20 19 18 18 17 17 17 16 16 16 16 15 15 14 12 13 15 13 14 14 14 13
25 24 24 24 24 24 24 24 23 23 23 22 22 22 22 21 21 21 21 21 21 21 21 21 21 21 21 21 21 21 21 21 22 21 20 21 21 20 20 21 21 21 21 22 22 23 23 23 24 24 24 25 25 25 26 26 26 25 25 26 27 26 25 26 25 24 24 23 23 22 21 20 20 19 19 20 19 18 18 17 15 15 17 16 15 16 15 15
28 27 27 27 27 27 26 26 26 26 26 25 25 25 24 24 24 24 24 24 24 24 24 25 25 25 25 24 24 24 25 25 25 25 24 24 24 24 24 24 24 24 24 24 25 25 25 25 26 26 26 27 27 27 28 28 28 27 28 28 29 29 28 29 28 28 27 27 27 26 26 24 23 22 22 22 22 21 21 20 19 17 19 19 18 18 17 17
30 30 30 29 29 29 29 29 28 28 28 27 27 27 27 27 26 26 26 26 27 27 27 27 27 27 27 27 27 27 27 28 29 28 27 27 27 27 27 27 27 27 27 27 27 27 27 27 27 28 28 29 29 29 30 31 30 29 29 30 31 31 29 30 31 30 30 29 29 29 29 28 26 25 25 25 23 22 23 23 22 20 21 21 20 20 20 19
33 32 32 32 31 31 31 31 30 30 29 29 29 28 28 28 28 28 28 28 28 28 28 28 29 29 29 29 29 29 29 30 31 30 30 30 30 30 30 30 30 30 30 30 30 30 30 30 30 30 30 31 31 31 32 33 32 30 30 31 32 32 30 30 32 31 32 31 31 31 31 30 29 28 29 28 24 24 25 24 24 23 22 23 22 22 22 23
34 34 33 33 33 32 32 32 31 31 30 30 29 29 29 28 28 28 28 28 28 28 28 28 29 29 29 29 29 29 29 31 31 31 31 31 31 31 31 31 31 31 32 32 32 32 32 32 32 32 31 31 31 31 32 33 33 30 30 31 33 33 30 30 32 32 32 32 32 33 32 31 30 30 30 29 25 26 27 27 27 24 24 24 24 24 25 26
34 34 33 33 33 32 32 31 31 31 30 30 29 29 29 29 29 28 28 28 28 28 28 28 28 28 28 28 27 27 28 31 31 30 30 31 31 31 31 31 31 31 32 32 33 33 33 33 33 34 32 31 32 32 33 33 33 32 29 31 33 33 31 30 31 32 33 33 33 34 32 31 32 32 31 28 27 28 29 29 28 26 25 26 25 25 26 27
32 32 33 32 32 32 31 31 30 30 30 30 29 29 29 29 29 28 28 28 28 28 27 28 27 27 27 26 26 24 26 30 30 29 30 30 30 31 31 31 31 31 31 32 33 33 33 33 34 35 33 32 33 33 34 34 34 33 31 32 33 33 32 31 31 31 33 34 35 35 32 32 35 35 32 27 27 29 31 30 29 29 28 27 26 26 28 28
31 31 32 32 32 32 32 31 31 31 30 30 30 30 29 29 29 28 28 28 28 28 29 29 29 29 29 28 27 24 27 31 31 30 31 31 31 31 31 31 31 30 31 31 32 33 33 34 35 35 34 33 34 33 35 36 35 34 34 34 33 33 32 31 31 31 33 35 37 37 33 33 36 36 31 26 30 33 33 32 30 31 29 28 28 28 28 29
31 31 32 32 32 32 32 32 31 31 31 31 31 31 30 30 30 30 30 31 31 31 31 32 32 33 31 31 29 25 29 33 32 32 32 31 31 31 31 31 31 31 31 31 32 32 33 34 35 35 35 34 34 33 35 36 35 35 36 35 32 33 32 30 30 30 34 37 38 38 34 32 34 34 29 24 32 36 34 33 31 31 30 29 30 29 29 29
33 33 33 33 33 32 32 32 32 32 32 32 32 32 33 33 33 33 34 34 34 34 35 35 35 35 34 33 29 27 31 33 32 32 32 32 32 32 32 32 32 31 31 31 31 32 33 34 35 36 36 35 34 33 35 35 36 36 37 36 32 34 33 28 29 31 35 38 38 39 35 32 32 30 26 24 32 36 34 32 31 31 30 30 31 30 31 30
36 36 36 35 35 35 34 35 34 34 34 34 35 35 36 36 36 36 36 37 37 37 37 38 38 38 38 34 30 31 32 32 32 33 34 35 35 34 34 34 34 33 33 32 33 33 33 35 36 36 36 36 34 34 35 35 36 36 37 37 32 34 32 25 28 33 37 38 38 39 37 31 28 24 22 25 32 35 34 32 30 30 30 30 31 31 31 30
37 38 38 38 38 37 37 37 37 37 37 38 38 39 39 39 39 39 39 40 40 40 39 41 41 41 41 35 31 33 34 32 33 34 36 36 35 34 34 34 34 34 34 35 35 36 36 37 39 39 38 37 35 35 36 35 37 36 37 39 34 33 30 22 28 34 37 39 37 40 40 31 23 21 21 25 30 33 33 31 30 30 29 29 30 31 31 30
39 39 39 39 39 39 39 39 39 39 39 39 40 40 41 41 41 41 41 41 41 42 42 43 43 43 43 37 32 35 35 34 35 36 38 37 36 34 33 33 33 33 34 35 36 37 38 40 42 42 40 38 36 37 38 37 37 36 39 40 36 36 32 24 30 35 36 38 37 41 43 34 23 19 21 25 29 32 32 30 29 29 28 29 29 30 31 31
40 40 40 40 40 40 39 40 40 39 39 39 39 40 41 41 41 41 41 41 42 42 43 44 44 45 45 38 34 36 36 36 37 39 39 38 36 34 33 34 33 33 33 33 34 36 38 40 42 43 41 39 37 38 40 41 39 38 41 41 37 41 39 30 31 33 35 37 38 42 45 40 29 21 21 27 30 32 33 31 29 29 28 28 28 29 31 31
40 40 41 41 41 40 40 40 40 39 39 39 39 40 41 42 42 41 41 41 42 43 44 45 44 46 47 40 35 37 37 38 40 41 40 39 38 36 36 36 35 34 35 35 35 36 38 40 42 42 41 37 35 37 42 44 40 37 42 45 42 44 45 39 32 30 34 39 41 44 47 44 35 26 25 28 30 33 35 32 29 28 27 27 27 29 30 30
41 41 41 42 41 41 41 40 40 40 40 40 40 41 43 44 43 43 43 43 44 45 46 47 46 48 48 42 38 38 38 40 41 41 40 40 39 38 38 38 37 37 38 38 38 39 41 42 44 44 41 37 34 38 43 44 40 38 43 48 48 46 47 46 37 31 34 41 44 46 49 47 39 33 31 30 31 33 34 32 29 27 26 27 28 28 28 29
43 43 43 43 43 42 42 42 42 42 42 42 42 43 45 46 45 45 45 45 46 46 48 48 47 50 49 44 42 40 39 40 41 40 39 39 39 40 40 40 40 40 41 41 40 41 43 44 47 47 43 38 35 39 44 44 42 42 45 48 50 49 48 48 42 35 36 42 46 48 51 49 44 39 35 33 34 35 34 32 29 27 27 28 29 28 27 28
45 45 45 45 45 45 44 44 44 44 44 44 45 45 46 48 48 48 48 48 48 48 49 48 46 49 49 45 45 44 42 41 41 41 40 39 40 41 42 42 42 43 44 43 43 44 46 47 50 50 43 38 37 40 44 45 44 46 47 48 50 50 49 47 42 38 39 46 50 50 52 53 50 45 40 37 36 37 35 33 31 29 29 30 30 28 28 29
47 47 47 47 47 47 47 47 47 47 47 47 47 48 48 49 50 51 51 51 50 50 49 49 47 47 47 46 46 46 45 44 43 42 40 40 41 42 43 42 44 45 45 44 46 47 47 50 52 47 41 38 38 42 44 45 45 46 47 48 49 50 49 45 42 39 39 49 54 52 55 56 54 50 44 40 39 38 36 34 34 32 31 31 30 28 28 29
49 49 49 49 49 49 49 49 49 49 49 49 49 50 51 51 52 53 53 53 52 51 51 50 50 48 46 47 48 47 46 45 43 41 40 41 42 43 43 43 46 46 45 45 48 48 49 53 50 44 41 41 42 43 44 45 46 47 48 49 49 49 48 45 42 39 39 50 56 54 57 58 54 52 47 43 41 38 36 36 35 33 32 31 29 28 29 30
52 52 52 52 51 51 51 51 51 51 51 51 51 52 52 53 54 55 56 55 53 53 52 51 51 51 49 49 49 48 48 45 41 40 40 41 42 43 43 45 47 46 46 47 48 48 51 54 48 42 43 45 45 45 45 46 47 49 49 50 50 47 47 46 43 40 40 49 55 55 57 57 54 52 48 44 42 39 37 36 34 33 33 31 29 30 30 31
54 54 54 54 53 53 53 53 54 54 54 54 53 54 54 55 56 57 58 58 56 53 53 52 53 53 51 51 50 49 49 45 43 42 41 41 41 42 44 46 47 48 49 48 46 49 54 53 46 43 46 47 47 46 46 47 48 49 48 49 50 46 46 48 45 43 44 49 54 55 57 57 53 50 47 44 42 39 37 37 35 34 34 33 33 34 32 31
56 56 56 55 55 55 54 55 55 55 55 55 56 56 56 56 57 58 59 60 59 55 52 52 55 55 53 52 52 51 50 48 46 44 42 41 41 41 43 45 47 49 49 46 46 51 54 51 47 46 47 47 48 47 47 48 48 47 47 48 49 47 47 49 49 49 49 50 52 54 58 57 50 47 45 41 40 39 39 39 37 35 35 35 34 33 33 33
58 58 57 57 57 56 56 57 56 56 57 57 57 57 57 58 58 59 59 61 61 58 55 55 55 55 54 53 52 52 52 51 49 47 45 43 41 42 43 44 47 47 45 45 47 52 53 49 47 48 49 48 49 49 48 47 46 46 48 47 47 48 49 49 50 51 52 52 51 52 57 56 49 45 42 39 39 41 40 39 37 34 35 36 34 33 33 33
59 59 58 57 57 57 57 57 57 57 57 57 57 57 57 57 57 58 59 60 61 58 59 60 58 55 54 53 52 52 52 51 50 48 47 45 42 42 44 45 45 44 43 44 48 53 51 45 44 46 48 48 49 49 45 42 45 49 49 47 46 47 48 49 50 51 53 53 52 53 56 57 53 46 42 41 42 43 42 39 36 33 32 34 34 33 31 31
61 60 59 58 57 57 57 57 57 57 57 57 56 55 55 55 56 56 56 59 61 60 60 63 61 58 54 53 51 49 49 48 48 47 45 45 43 43 44 44 43 43 43 46 49 51 48 44 44 44 45 48 50 48 43 41 47 50 49 48 49 48 48 49 51 52 53 53 54 55 58 60 57 51 47 45 45 45 43 40 36 32 30 30 31 32 30 29
62 62 60 59 58 57 57 57 58 59 59 59 57 57 57 56 56 55 55 59 62 61 61 61 60 59 57 54 51 48 47 47 48 48 46 46 46 45 46 45 44 45 45 48 51 49 47 47 47 46 47 50 49 47 45 45 48 49 48 50 51 51 51 51 51 53 54 55 55 56 59 61 57 54 54 51 48 46 44 41 36 32 30 30 30 32 32 29
60 61 61 61 60 58 58 59 60 60 60 60 59 60 59 58 58 56 57 61 63 62 60 57 58 60 59 56 52 48 47 47 48 49 48 48 49 48 48 47 47 47 47 50 51 49 48 49 49 50 50 49 47 46 46 47 48 48 49 50 51 52 52 53 54 55 57 59 58 57 59 61 56 54 56 55 51 49 46 43 40 35 32 31 31 32 32 30
53 55 58 59 59 60 61 60 59 58 59 60 60 59 58 57 57 56 59 62 61 59 56 56 57 57 56 54 52 50 49 48 48 48 48 48 49 49 50 49 49 49 49 51 52 49 49 50 51 51 50 49 48 47 47 49 49 48 48 49 51 53 54 56 58 58 60 61 59 58 58 59 56 53 55 57 55 53 50 45 43 40 36 33 32 32 32 31
51 52 53 54 55 56 56 56 55 54 55 56 57 58 57 58 56 57 58 57 56 55 53 54 55 53 52 52 52 51 49 48 47 46 46 46 47 48 49 49 49 49 49 50 50 49 49 51 51 50 50 49 48 49 48 48 47 45 45 47 49 51 53 57 59 60 62 61 58 58 57 58 57 54 55 59 58 57 55 51 47 46 42 38 36 35 34 33
55 55 55 53 52 50 49 51 52 52 52 51 52 53 54 56 56 53 52 51 52 53 49 50 52 51 52 52 51 51 50 48 47 47 47 46 46 47 48 49 49 50 49 48 49 49 49 49 49 49 50 48 48 48 47 46 45 44 45 46 47 50 53 57 58 58 59 58 56 56 57 59 59 56 55 57 57 57 58 56 53 51 47 45 42 41 41 37
56 57 57 54 51 49 49 51 52 53 53 52 52 53 53 55 54 50 49 51 53 53 51 52 54 53 53 53 52 52 52 51 50 49 50 50 49 49 50 51 51 52 51 50 51 52 52 50 49 51 51 50 50 49 48 48 47 47 49 49 50 52 55 58 57 56 57 57 55 56 59 61 60 57 56 56 56 57 58 59 58 55 52 51 48 45 47 43
55 56 56 55 54 54 54 55 55 55 55 55 54 55 55 56 54 51 51 52 54 55 55 57 59 57 56 55 55 55 55 55 54 54 55 55 55 54 54 54 54 55 55 55 56 56 56 55 53 55 54 52 53 53 51 51 51 52 53 53 54 56 57 57 55 55 57 57 56 59 63 63 61 59 58 57 57 58 60 61 60 58 56 56 55 52 52 49
57 56 57 57 58 58 58 58 59 59 59 58 58 58 59 59 56 55 55 54 55 56 56 57 58 59 58 58 58 58 58 59 59 58 59 59 60 59 58 58 56 55 55 56 57 57 59 61 58 59 59 56 55 55 54 54 55 56 56 57 59 56 54 55 54 55 58 61 62 65 67 66 63 61 60 59 60 61 62 61 58 57 58 60 60 58 56 54
60 60 60 60 60 60 61 61 61 62 63 62 63 64 64 63 60 59 58 58 57 57 57 57 58 59 61 62 62 61 61 62 62 61 61 63 64 64 63 62 59 56 56 56 56 55 59 63 63 63 63 61 60 59 57 56 58 59 60 60 60 57 56 59 62 60 59 63 65 67 70 71 68 66 63 61 62 61 60 59 58 60 62 62 63 63 60 58
62 62 62 61 61 62 62 63 63 64 65 65 67 68 67 66 64 62 61 60 60 60 60 60 60 60 63 64 64 64 64 65 65 65 66 66 67 68 67 64 62 60 59 59 58 57 59 63 66 68 69 69 67 65 63 63 64 64 63 62 61 62 63 64 66 65 62 65 68 68 71 72 70 69 68 66 65 61 59 59 60 64 67 64 64 65 64 62
65 65 65 64 65 66 66 66 67 67 67 69 70 70 70 69 67 65 64 63 63 64 65 65 65 63 64 65 64 64 65 67 68 68 69 69 70 70 69 67 66 65 64 63 64 65 63 63 65 67 70 71 68 66 67 67 66 63 62 60 60 63 64 63 65 67 67 69 71 70 72 72 70 69 68 67 67 65 65 66 65 68 71 67 65 66 65 65
69 70 69 68 69 70 70 71 71 71 72 74 74 73 73 72 70 69 68 67 67 68 69 70 69 69 69 68 67 67 67 68 69 68 69 70 71 72 71 71 70 69 67 66 66 65 61 58 58 58 61 65 64 64 66 64 62 60 59 59 59 60 61 62 64 66 67 70 72 73 74 71 66 65 66 66 67 68 69 71 72 72 73 70 67 66 65 63
73 74 73 73 72 72 72 73 74 75 77 77 76 76 75 75 74 73 72 71 71 72 73 73 73 73 73 73 72 72 72 73 74 72 73 73 72 71 70 68 67 66 65 62 59 58 57 58 61 60 60 64 64 64 64 62 61 62 62 61 61 61 62 63 66 66 67 71 73 74 76 70 59 58 62 63 65 68 68 71 73 72 72 72 69 67 64 61
73 74 74 74 74 73 74 75 76 76 78 79 78 77 76 75 75 74 74 75 74 75 75 75 75 75 76 75 75 75 75 76 77 77 78 78 76 74 71 68 67 65 62 59 58 61 65 68 71 70 68 68 67 66 66 67 66 65 64 63 62 62 63 66 69 69 69 73 74 74 76 72 56 49 55 59 63 67 68 70 71 70 70 70 68 66 65 63
72 72 71 72 73 74 75 76 77 77 78 78 77 76 76 75 74 74 75 76 76 76 76 75 75 75 76 76 76 76 77 78 79 79 80 80 78 77 75 71 69 67 65 65 67 71 73 73 74 75 74 71 68 65 65 67 66 64 63 61 59 59 61 66 71 71 70 73 74 72 75 74 57 44 48 55 58 62 64 64 66 65 64 64 64 64 63 64
71 70 70 70 71 72 74 75 76 76 76 75 73 74 74 75 74 74 74 75 75 75 75 75 75 75 76 76 76 77 78 80 82 82 81 81 80 79 76 73 72 71 72 74 75 75 73 70 70 71 71 68 64 60 59 60 61 61 60 57 55 54 54 58 64 66 67 69 68 69 73 72 59 46 47 52 54 58 59 59 62 63 62 63 64 64 64 64
72 71 70 70 71 72 74 74 74 74 73 72 72 73 72 73 72 72 72 74 75 74 74 74 74 74 74 74 74 75 76 79 82 82 81 82 81 79 76 74 73 73 74 74 74 73 72 69 66 64 64 63 62 60 59 58 56 56 55 52 51 51 50 53 56 59 64 64 61 66 72 67 55 50 52 53 52 55 55 55 59 62 64 66 66 67 68 65
73 72 72 72 72 73 73 73 73 74 74 73 73 73 72 72 71 69 70 72 73 74 75 74 73 73 73 73 74 75 75 75 77 78 78 79 79 79 77 76 75 74 74 73 73 74 75 75 73 70 70 70 68 66 63 58 55 55 55 52 51 51 52 54 56 60 65 63 61 66 70 66 60 59 60 60 61 60 56 55 58 61 63 65 66 67 66 63
74 74 74 74 75 75 74 73 72 73 74 73 74 74 73 73 72 70 70 72 72 73 75 75 74 74 75 75 75 75 75 74 74 76 77 77 78 78 77 76 77 77 76 75 76 77 79 80 81 80 82 83 81 77 73 69 69 69 67 65 63 63 64 64 66 69 70 70 72 73 71 69 67 63 60 62 64 64 61 60 63 63 62 63 65 65 62 58
74 74 74 74 75 76 75 74 73 73 72 72 73 75 74 74 74 73 73 74 73 73 75 76 75 75 76 76 76 76 76 76 76 77 78 78 77 77 77 77 78 79 78 78 79 79 79 80 80 82 85 87 87 86 83 83 85 85 85 85 84 84 84 83 84 85 81 83 88 86 80 81 81 74 69 68 66 64 62 60 61 60 59 60 62 64 63 58
74 73 74 75 75 75 75 75 74 73 73 72 73 74 74 74 75 74 74 74 74 74 75 76 75 74 74 74 74 75 76 77 78 78 77 77 77 78 78 78 78 78 78 79 80 80 81 81 79 81 85 86 87 88 87 88 90 90 89 90 91 92 94 94 96 96 93 93 97 93 87 89 90 82 76 74 74 73 70 68 67 65 63 63 64 65 65 61
73 73 73 75 75 74 74 74 74 74 73 73 73 74 73 73 72 72 72 73 74 74 74 74 74 72 72 73 73 73 72 73 73 74 74 75 77 78 79 78 77 76 75 76 78 80 82 82 81 82 84 84 83 84 85 85 87 88 87 87 87 87 88 90 93 94 94 94 95 91 88 86 83 75 72 75 77 75 72 72 74 74 74 73 72 72 73 71
72 72 72 73 73 72 72 73 73 74 74 73 74 74 72 72 71 70 71 72 72 73 73 74 74 71 69 70 69 68 67 68 67 67 68 71 74 75 77 77 74 73 73 72 73 75 78 81 82 81 82 81 79 79 78 77 77 79 82 83 83 83 84 86 88 88 88 89 89 86 84 83 80 76 75 76 72 66 64 65 67 68 71 73 75 76 79 81
71 71 71 71 71 71 71 72 72 73 73 73 73 73 71 71 72 71 71 71 70 70 70 71 73 71 68 68 68 68 69 70 68 65 65 69 73 72 71 70 69 69 68 64 60 59 63 71 76 76 77 77 75 74 75 75 74 74 76 78 80 84 87 87 85 83 82 83 84 84 84 85 84 81 76 70 64 61 61 62 63 63 65 69 73 76 80 84
70 70 71 71 71 70 70 70 70 71 72 71 71 72 70 70 71 71 71 71 70 69 69 68 69 70 70 69 69 70 71 72 71 69 68 71 73 71 70 70 70 70 70 67 64 61 61 67 73 76 79 79 75 74 76 76 77 79 81 81 83 85 86 84 83 82 82 83 85 86 85 84 80 76 71 68 67 66 64 64 65 66 67 70 72 73 75 78
Wind_Direction
266 268 269 271 272 273 274 275 276 276 277 277 278 279 280 282 282 283 284 284 285 285 286 287 287 288 289 290 291 292 293 294 293 294 294 294 293 292 293 294 295 296 296 296 296 297 297 297 296 296 296 296 297 297 298 298 299 301 304 304 303 305 307 308 309 309 309 309 309 308 307 306 306 308 308 308 308 308 308 307 311 313 312 315 315 316 317 314
267 268 270 271 272 273 274 275 275 276 277 277 278 278 279 280 281 282 282 283 284 284 285 285 286 286 287 288 288 290 290 290 289 289 291 290 289 290 290 290 290 290 291 291 291 291 292 293 292 293 293 293 294 294 294 294 295 297 299 301 300 301 303 304 305 305 305 305 305 305 304 303 302 304 304 303 305 303 300 300 303 306 305 307 308 308 310 309
267 268 269 271 272 273 274 274 275 276 276 277 277 278 278 278 279 280 281 282 282 283 284 285 285 285 286 287 288 289 289 289 287 287 289 289 289 289 289 288 288 288 288 288 288 288 288 289 289 290 290 291 292 292 292 292 293 295 296 297 296 297 300 301 301 301 302 302 302 301 301 301 300 302 301 300 302 298 296 297 298 299 298 300 302 302 304 303
266 267 268 270 270 271 272 273 274 275 275 276 277 277 277 278 278 279 279 280 281 282 283 284 285 285 286 286 287 288 288 288 287 287 289 289 290 290 289 288 288 288 288 287 287 287 287 288 288 289 290 290 291 292 292 291 292 294 295 293 292 294 297 297 297 298 299 299 299 298 298 299 299 299 298 300 299 292 292 295 295 294 292 293 295 296 298 297
265 266 267 268 269 270 270 271 272 273 274 274 275 276 276 276 277 277 278 278 279 280 281 282 283 284 285 286 287 288 288 288 287 288 288 288 289 289 289 289 289 289 289 288 288 288 288 288 288 288 289 290 290 290 290 290 290 292 292 291 291 292 294 295 295 297 297 297 296 295 297 297 297 296 296 300 297 289 291 293 293 292 289 288 290 291 291 291
264 265 266 266 267 268 268 269 270 271 271 272 273 274 274 275 275 276 277 277 278 278 279 280 281 282 283 284 286 287 289 288 288 288 289 289 289 289 289 289 289 289 289 289 289 289 288 288 288 287 287 288 288 287 287 288 289 289 290 289 289 291 293 292 294 296 295 295 295 294 296 296 295 294 295 299 296 290 291 292 292 291 286 285 286 286 285 286
262 263 264 265 265 266 267 267 268 269 269 270 271 272 273 273 274 275 276 276 277 278 278 279 279 281 281 283 284 287 289 288 287 288 289 290 290 290 290 290 290 291 290 290 290 290 289 289 288 287 288 288 287 287 287 287 288 289 288 287 289 291 291 291 292 294 293 292 291 291 294 294 292 292 296 300 296 289 289 291 291 288 284 284 283 281 279 280
261 262 263 264 264 265 265 266 267 267 268 269 269 270 271 271 272 273 273 274 275 276 277 277 278 279 280 283 284 288 290 287 288 290 291 291 292 291 291 291 292 292 291 291 292 291 291 290 288 288 290 288 288 289 289 288 289 289 288 286 288 290 290 290 291 292 290 289 288 290 292 292 291 293 298 301 293 287 288 289 289 286 284 284 281 278 276 276
261 261 262 263 264 265 265 266 267 267 268 268 268 269 269 270 271 271 271 272 272 273 274 275 276 277 278 280 282 289 289 285 288 291 292 292 291 291 292 292 292 292 292 292 292 293 293 291 290 291 290 289 289 290 289 289 290 290 289 288 289 289 289 290 291 292 289 286 287 289 291 291 291 294 300 300 289 286 287 288 287 286 286 284 282 280 278 276
261 261 262 262 263 264 265 266 266 267 268 268 268 268 269 269 271 271 272 272 272 272 273 273 274 275 276 276 279 285 283 282 286 289 290 290 291 291 292 292 293 293 293 293 293 293 293 292 292 292 291 291 291 291 290 291 291 291 290 290 291 288 287 289 292 290 285 285 287 288 290 290 289 295 303 298 285 284 286 287 287 286 286 285 284 283 280 278
263 263 263 263 264 264 265 265 265 266 267 267 268 268 269 269 270 271 272 273 273 273 273 273 273 273 273 274 277 278 277 280 284 285 285 287 288 290 291 292 294 294 293 293 293 292 293 293 293 292 293 293 293 293 292 292 293 293 292 292 291 287 287 290 290 285 282 283 286 287 288 289 290 298 304 294 285 287 288 288 287 286 287 286 286 284 282 279
265 265 265 265 266 266 266 267 267 267 267 268 268 269 269 270 270 271 272 273 273 273 273 274 273 273 273 273 275 274 273 276 279 279 280 281 283 286 288 289 291 292 292 293 293 292 292 292 292 292 293 293 294 294 292 293 293 294 295 292 291 289 290 294 286 281 281 283 285 286 286 289 293 299 299 291 289 291 291 290 288 287 287 286 285 284 283 281
264 265 266 267 267 267 267 268 268 268 269 269 270 270 270 271 271 271 271 272 273 273 273 274 274 274 274 274 275 274 273 274 273 274 275 276 279 282 284 285 287 288 290 291 291 291 291 291 291 291 291 292 294 294 292 294 293 296 296 294 296 292 289 288 277 276 280 283 286 285 285 288 293 294 292 288 288 291 292 292 289 288 288 286 286 285 283 282
262 263 265 266 266 267 268 268 268 269 270 270 271 271 271 271 271 271 271 272 272 273 273 273 274 274 274 276 276 275 275 273 271 271 272 275 279 281 283 284 285 287 288 288 288 288 289 288 287 288 289 291 293 293 293 294 294 297 295 295 299 291 285 279 273 277 281 282 284 283 284 288 289 287 285 281 283 287 289 291 291 290 287 285 285 285 282 282
261 262 263 264 265 266 266 267 268 269 269 270 271 271 272 272 272 272 272 272 273 273 274 274 274 275 275 275 276 275 274 273 272 271 273 277 279 280 282 283 285 287 287 287 287 287 286 285 285 286 287 289 292 293 293 292 293 297 295 294 294 288 286 282 279 284 286 284 283 282 283 286 288 284 277 275 279 283 285 288 291 289 285 283 282 279 279 280
260 261 262 263 263 264 264 265 266 267 268 269 270 271 271 272 272 272 273 274 274 275 275 275 275 276 275 275 274 273 273 273 273 273 275 277 278 280 281 281 283 285 285 286 286 286 285 284 284 284 286 289 294 296 293 290 293 297 293 290 288 287 288 287 286 290 289 286 284 282 282 284 287 285 277 275 276 279 283 286 287 286 284 281 278 276 277 278
260 260 261 261 262 263 263 264 265 266 267 268 268 269 270 271 271 272 273 274 275 276 276 275 276 275 275 276 273 271 271 271 271 273 274 276 277 278 278 279 281 282 282 283 283 283 283 283 283 283 285 289 295 297 293 292 295 295 289 287 287 287 288 288 290 293 290 287 284 282 281 282 285 284 279 278 278 279 283 285 285 285 284 281 278 278 280 278
260 260 260 261 261 262 262 263 264 265 266 267 267 267 268 270 271 271 272 274 275 276 276 276 277 276 276 276 274 271 269 269 270 271 273 275 276 276 277 278 279 279 279 279 280 281 280 281 281 281 283 290 296 295 290 291 294 291 288 287 286 287 287 288 292 294 291 287 283 282 281 283 284 281 278 278 279 280 282 286 288 286 282 281 281 283 283 280
260 260 260 261 261 261 262 263 264 265 266 266 266 266 267 269 270 271 272 274 276 278 277 277 277 277 277 277 275 274 271 269 269 270 272 274 275 275 276 277 277 277 276 277 278 278 277 278 277 278 285 293 294 289 286 289 290 288 287 286 287 288 288 290 294 294 291 285 282 282 283 283 282 280 280 280 279 279 281 286 289 287 284 283 284 285 284 282
259 260 260 261 261 262 263 264 265 266 267 267 267 267 266 267 269 270 272 274 276 277 277 276 275 275 278 279 277 275 274 272 270 271 272 273 273 272 273 274 274 274 275 276 276 274 275 275 275 280 289 292 286 283 284 286 286 285 286 286 288 289 290 294 296 293 290 285 282 282 282 281 282 284 285 283 281 280 282 285 285 285 285 286 285 284 282 280
261 261 261 261 262 263 264 266 267 267 268 268 268 268 268 268 269 270 272 273 275 277 276 275 275 276 277 278 277 277 276 274 274 274 273 272 270 270 271 272 272 272 274 274 273 274 275 274 277 285 289 285 281 281 283 284 284 284 286 287 287 288 291 294 294 294 290 283 281 282 281 282 284 286 286 285 282 282 282 282 282 284 285 286 284 281 280 278
262 263 263 263 264 265 266 267 268 268 269 269 269 269 269 270 271 272 273 273 274 276 276 276 277 277 278 278 278 279 278 279 280 278 275 271 270 271 271 270 270 271 271 270 272 275 274 274 279 285 282 279 279 281 281 281 282 283 285 286 286 288 291 290 291 293 287 282 283 284 284 284 285 285 285 284 284 283 282 281 282 284 283 282 281 281 280 277
263 264 265 265 266 267 267 268 268 269 269 270 270 270 270 271 272 272 273 273 273 273 274 275 276 276 277 278 279 280 280 282 282 280 277 275 272 270 268 267 268 268 267 269 272 273 272 275 279 279 277 277 278 278 279 279 280 282 284 285 285 289 291 288 289 289 285 283 285 286 286 284 284 285 285 286 286 286 285 284 283 282 281 279 279 282 281 277
263 264 265 266 266 266 267 267 268 268 269 269 269 269 270 270 271 271 272 272 272 272 271 272 273 274 276 277 279 281 282 282 280 279 279 276 273 270 268 267 266 265 267 270 271 270 270 273 276 275 275 275 275 276 277 278 278 279 281 282 284 288 288 286 288 289 285 283 285 288 287 285 286 287 287 290 291 290 288 286 283 281 281 280 279 280 281 279
263 263 264 265 266 267 268 268 269 269 269 269 270 270 270 270 271 271 271 272 273 273 272 269 269 271 274 276 278 280 280 280 280 279 278 276 274 271 269 267 266 267 270 271 269 267 268 271 274 275 275 274 275 274 274 276 277 276 277 278 281 284 284 285 287 287 285 284 286 287 287 287 289 289 291 296 295 292 289 285 283 283 283 281 280 279 279 280
262 263 264 265 266 267 268 269 270 270 271 271 271 271 271 271 271 271 271 272 273 274 272 270 269 269 271 275 277 277 277 278 278 277 276 276 274 273 270 269 269 269 270 269 267 265 267 271 273 273 274 274 273 272 273 276 274 272 274 277 278 279 281 282 283 283 284 286 287 286 285 288 291 292 296 299 295 291 289 288 290 289 285 282 281 277 275 278
262 263 263 264 265 266 267 268 269 269 270 270 270 270 270 271 271 271 272 272 272 273 272 273 275 275 276 277 277 276 275 275 275 275 274 274 273 272 270 270 270 269 268 267 265 266 269 271 271 271 271 270 271 273 275 274 271 272 276 278 277 277 276 277 279 280 281 283 284 284 284 287 292 297 299 297 293 291 291 292 294 292 287 281 278 276 275 277
263 263 263 263 264 264 265 267 268 268 269 268 268 269 269 270 270 271 272 272 272 272 273 275 279 280 280 278 277 276 274 274 275 274 272 271 270 270 269 269 269 268 267 266 265 267 269 270 270 270 268 268 271 274 275 273 272 275 277 277 277 277 277 277 277 277 278 279 280 280 281 284 291 296 297 294 291 291 292 293 294 292 288 282 277 276 277 277
264 264 264 263 263 264 265 266 267 269 269 269 268 267 269 269 269 269 269 269 270 272 276 280 282 281 280 279 278 276 274 272 272 272 271 269 268 268 268 268 268 268 267 267 266 266 268 269 269 269 268 270 272 273 272 272 274 275 275 276 277 278 278 278 277 276 277 277 277 279 281 284 289 293 292 291 291 293 294 295 296 294 290 285 280 277 277 277
265 265 264 264 264 264 264 265 266 268 268 268 267 267 268 268 268 268 267 267 270 274 278 281 280 279 279 279 278 275 273 272 271 271 270 269 268 268 268 268 269 268 267 266 265 265 267 268 267 269 271 272 272 271 271 272 273 274 275 276 277 277 277 276 276 276 276 275 277 279 282 285 287 289 289 291 293 295 296 297 297 295 293 290 285 281 277 278
266 266 265 265 265 265 265 265 266 267 267 268 270 270 270 270 269 268 267 269 272 273 275 277 277 279 278 277 276 275 275 274 272 272 272 271 270 270 271 271 272 271 268 266 266 265 265 265 267 269 271 272 272 272 273 274 274 275 275 276 276 276 276 275 275 275 275 276 279 281 283 282 281 282 285 290 293 295 296 297 295 293 293 293 292 287 281 279
266 266 266 267 267 266 266 266 267 268 268 268 270 270 270 270 268 268 270 271 272 271 271 273 275 276 276 275 276 277 276 275 275 275 274 273 271 271 272 272 272 272 271 269 268 267 266 266 268 270 271 272 274 274 274 274 275 275 274 274 275 275 275 275 275 275 277 279 282 284 283 279 277 279 283 287 291 293 293 294 292 291 292 294 294 290 285 282
264 265 265 266 266 265 266 267 267 267 268 267 267 267 267 267 267 269 270 269 268 268 269 271 272 273 274 275 276 277 276 276 277 277 275 274 273 272 273 273 273 274 272 270 268 268 268 267 268 272 273 274 275 275 274 274 274 274 274 273 272 273 274 274 275 278 280 282 283 282 279 277 279 282 284 286 288 289 289 289 289 291 294 295 293 290 287 287
262 263 263 263 264 264 266 267 267 267 268 267 267 266 266 265 267 270 270 269 267 266 266 269 271 272 272 273 274 275 276 276 276 276 276 275 275 274 275 275 276 276 276 273 270 269 268 266 268 271 272 271 272 273 274 274 274 273 274 273 271 272 273 274 276 279 280 278 277 275 274 277 281 283 285 285 286 285 285 286 288 293 295 295 293 291 290 289
262 262 262 261 262 264 266 267 268 268 268 268 268 266 266 267 268 269 269 270 269 267 266 267 268 269 269 270 271 273 274 275 275 275 274 274 274 274 275 276 276 277 278 277 275 274 271 270 269 270 269 268 269 270 272 273 272 271 272 271 272 275 276 276 276 276 276 275 275 276 277 278 281 281 282 283 284 283 283 285 288 291 292 291 291 290 291 292
260 261 261 262 264 267 268 268 268 269 269 269 268 266 267 270 269 268 268 269 269 268 266 265 265 266 267 268 268 270 271 272 273 273 273 274 274 274 274 274 274 275 276 278 278 278 276 275 273 271 270 269 269 269 270 271 272 271 270 270 274 277 278 278 277 275 273 272 273 275 278 280 281 280 280 281 281 281 281 283 286 286 286 287 288 288 290 291
262 262 262 263 265 267 268 268 269 269 269 269 268 268 269 270 269 269 269 268 268 268 267 266 265 265 265 266 266 267 268 269 270 271 272 273 274 274 274 274 274 274 275 277 279 278 278 278 277 276 276 276 275 274 273 272 272 272 272 273 276 277 277 277 276 274 272 270 271 272 274 276 277 279 282 283 282 281 279 278 280 282 284 285 286 287 288 288
265 265 265 265 267 268 268 268 268 268 269 268 268 270 271 271 271 270 269 269 269 269 268 268 266 264 264 264 264 265 266 267 269 270 272 272 273 274 275 274 275 275 276 278 280 281 281 282 280 279 280 280 280 280 279 278 278 278 279 279 277 277 276 275 272 272 271 271 271 270 269 270 273 277 281 281 282 283 281 280 280 281 282 283 284 285 285 285
268 268 267 268 269 270 270 270 270 270 269 269 269 271 272 272 271 270 269 269 269 269 269 269 269 268 266 264 263 263 264 266 267 269 270 270 271 273 274 274 274 275 278 281 282 283 283 282 280 278 278 278 279 280 282 283 284 285 283 281 278 277 276 273 270 269 269 269 269 268 267 266 269 274 276 276 278 279 279 280 280 281 281 282 283 283 283 284
268 268 268 268 270 270 270 270 270 270 270 270 271 271 271 270 270 270 271 271 270 270 270 270 270 270 269 268 267 266 266 266 267 268 269 269 269 270 271 272 274 277 280 281 281 282 281 279 278 277 275 273 275 278 280 282 282 282 280 279 278 276 274 270 266 266 266 266 266 267 267 266 268 270 271 273 274 274 275 276 277 279 281 282 283 283 285 285
267 267 267 267 268 268 268 268 268 268 269 270 270 271 271 270 270 270 271 272 272 271 271 271 270 271 271 271 270 270 270 269 269 269 269 269 269 270 270 271 274 277 277 276 276 277 279 280 281 280 278 276 275 276 277 279 280 280 278 276 275 273 271 266 264 266 266 265 264 264 264 265 267 268 269 271 272 273 273 274 276 278 280 281 283 284 286 285
268 268 268 267 266 266 266 266 267 267 267 268 270 270 271 270 270 270 271 271 272 272 271 271 271 271 272 272 271 271 271 272 271 271 270 270 271 272 273 273 275 275 273 271 272 275 279 281 281 282 282 281 281 279 278 278 278 276 273 272 271 269 268 266 267 268 267 264 264 264 264 266 268 270 269 270 272 274 275 275 277 277 278 280 281 281 282 283
269 268 268 267 267 267 266 266 267 267 268 268 269 269 269 269 269 269 270 271 272 272 272 272 272 272 271 271 271 271 271 271 271 271 271 272 271 272 274 275 275 275 273 272 273 275 277 278 278 280 281 282 282 279 276 274 273 271 269 268 267 266 266 268 269 270 269 267 267 268 269 270 274 275 270 266 267 269 272 273 274 275 274 275 276 277 278 279
270 269 269 268 267 267 267 268 269 269 269 269 268 268 268 268 268 269 270 271 271 272 272 272 271 271 271 271 271 270 270 271 270 270 271 271 271 272 273 274 275 275 274 274 274 274 274 274 274 276 277 277 277 275 274 274 272 269 266 264 262 263 263 265 267 268 269 267 266 268 269 270 273 275 272 269 268 269 270 272 274 276 276 275 275 274 274 274
270 270 270 270 269 268 269 270 270 270 270 270 270 269 269 269 269 269 269 269 270 271 272 272 271 272 271 271 271 271 271 271 271 272 271 271 271 271 271 272 272 273 273 273 273 272 271 271 272 271 271 271 271 272 273 271 267 264 263 262 262 264 265 266 267 268 268 267 266 266 268 270 272 272 272 273 274 274 273 272 275 278 278 278 276 272 270 269
271 271 270 270 270 269 270 271 271 272 272 273 272 272 272 272 272 271 269 269 269 270 271 271 271 272 272 272 273 273 272 272 272 272 272 272 272 272 271 271 271 271 272 273 272 272 271 270 270 270 271 271 271 271 270 268 265 264 265 265 265 266 267 267 268 268 269 271 270 269 271 273 273 270 270 272 275 276 273 271 273 275 274 273 273 272 270 267
270 270 270 270 270 270 271 272 272 272 272 272 272 273 273 274 274 273 272 271 271 271 271 271 271 272 272 273 273 273 272 272 272 272 273 274 273 272 271 271 271 271 272 272 272 272 272 271 271 271 272 272 273 272 271 270 269 268 269 269 269 270 271 271 271 271 273 276 276 274 275 276 275 274 272 272 274 274 273 271 270 271 270 268 269 269 268 265
269 270 269 269 270 271 272 272 272 272 272 272 272 273 273 274 274 274 273 272 272 271 271 272 272 272 272 271 271 271 272 272 273 273 273 274 273 273 272 272 272 272 272 272 271 271 271 271 272 272 272 273 273 273 273 272 271 271 271 271 271 271 272 273 274 275 277 278 279 280 280 280 280 280 279 277 275 274 273 271 269 267 267 267 267 266 265 263
269 269 269 269 270 271 271 271 271 271 271 272 272 273 274 274 273 273 273 273 272 272 272 272 272 272 271 271 271 272 273 273 273 273 273 273 273 274 274 273 273 272 271 270 270 269 269 270 270 271 272 272 272 273 273 272 272 271 271 271 272 271 272 273 273 274 275 277 279 281 282 281 281 282 282 281 281 279 276 274 271 269 267 266 266 265 263 262
268 268 268 269 269 270 270 270 271 271 271 271 272 273 273 273 272 272 272 273 272 272 272 272 272 272 271 272 272 271 272 272 273 273 274 274 274 275 275 274 272 271 270 270 271 270 269 269 269 270 271 271 271 271 272 271 271 270 270 270 271 272 272 272 273 274 275 276 278 279 279 278 279 281 282 282 282 278 275 273 272 271 268 265 263 261 261 261
268 268 268 268 268 268 269 269 270 270 270 271 272 272 271 271 272 272 272 272 272 272 272 271 272 272 271 272 272 272 272 272 271 271 271 272 274 275 275 274 273 272 271 270 270 269 269 269 270 270 270 271 271 271 270 270 270 270 269 269 270 272 273 273 274 274 275 275 277 277 277 279 281 281 279 276 274 271 270 271 271 269 265 263 262 261 261 263
268 268 268 267 267 267 268 268 269 269 270 271 271 272 272 272 272 272 272 271 271 272 272 272 272 272 271 271 271 271 272 272 271 270 269 269 269 269 269 269 270 270 268 266 264 263 263 265 268 270 271 272 271 271 271 272 272 271 270 271 272 273 274 274 274 274 275 277 278 279 280 281 280 277 273 271 270 270 270 271 270 268 266 267 267 267 265 264
Height
5892 5892 5892 5892 5892 5893 5893 5893 5893 5893 5893 5894 5894 5894 5894 5894 5894 5894 5894 5894 5894 5893 5893 5893 5893 5893 5893 5893 5893 5892 5892 5891 5891 5891 5891 5890 5890 5890 5890 5889 5889 5889 5888 5888 5887 5886 5886 5885 5885 5884 5884 5883 5882 5882 5881 5880 5880 5879 5878 5877 5876 5876 5875 5875 5874 5873 5873 5872 5871 5871 5870 5869 5868 5868 5867 5866 5865 5865 5864 5863 5863 5862 5861 5860 5859 5858 5857 5856
5889 5890 5890 5890 5890 5890 5890 5891 5891 5891 5891 5891 5892 5892 5892 5892 5892 5892 5892 5892 5892 5892 5891 5891 5891 5891 5891 5891 5891 5890 5890 5889 5889 5889 5889 5888 5888 5888 5888 5887 5887 5887 5886 5886 5885 5885 5884 5884 5883 5882 5882 5881 5881 5880 5879 5878 5878 5878 5877 5875 5874 5874 5873 5872 5872 5871 5871 5870 5869 5869 5868 5867 5867 5866 5865 5864 5863 5863 5862 5862 5861 5861 5859 5858 5858 5856 5856 5855
5886 5887 5887 5887 5888 5888 5888 5888 5888 5889 5889 5889 5889 5889 5890 5890 5890 5890 5890 5890 5890 5889 5889 5889 5889 5889 5889 5889 5889 5888 5888 5887 5886 5886 5887 5886 5885 5885 5885 5885 5885 5884 5884 5883 5883 5883 5882 5882 5881 5880 5880 5879 5879 5878 5877 5876 5876 5876 5875 5874 5872 5872 5871 5870 5869 5869 5868 5867 5866 5866 5866 5865 5864 5864 5863 5862 5861 5860 5860 5860 5860 5859 5858 5857 5856 5855 5854 5853
5884 5884 5884 5885 5885 5885 5885 5885 5886 5886 5886 5886 5886 5887 5887 5887 5887 5887 5887 5887 5887 5887 5887 5887 5887 5886 5886 5886 5886 5886 5886 5885 5884 5884 5884 5884 5883 5883 5882 5882 5882 5882 5881 5881 5880 5880 5879 5879 5878 5878 5877 5876 5876 5875 5874 5873 5874 5874 5873 5871 5869 5869 5869 5867 5866 5866 5865 5864 5863 5862 5862 5862 5861 5861 5860 5859 5859 5857 5857 5858 5857 5857 5856 5854 5854 5853 5852 5851
5881 5881 5881 5882 5882 5882 5882 5883 5883 5883 5883 5883 5884 5884 5884 5884 5884 5884 5884 5884 5885 5885 5884 5884 5884 5884 5884 5884 5884 5883 5883 5882 5881 5882 5882 5881 5881 5880 5880 5879 5879 5879 5878 5878 5877 5877 5876 5876 5875 5875 5874 5873 5873 5872 5871 5870 5870 5871 5870 5867 5866 5867 5867 5865 5863 5863 5861 5860 5860 5858 5859 5858 5857 5857 5857 5857 5855 5853 5854 5854 5854 5854 5853 5852 5852 5851 5850 5848
5878 5878 5878 5879 5879 5879 5879 5880 5880 5880 5880 5880 5881 5881 5881 5881 5881 5881 5881 5881 5882 5882 5882 5882 5881 5882 5881 5881 5881 5881 5881 5879 5878 5879 5879 5878 5878 5877 5877 5876 5876 5875 5875 5875 5874 5873 5873 5873 5872 5871 5871 5870 5869 5869 5868 5866 5866 5868 5867 5864 5863 5863 5864 5862 5860 5860 5858 5856 5856 5854 5855 5854 5853 5854 5854 5854 5851 5849 5850 5850 5850 5851 5850 5850 5849 5848 5847 5846
5874 5875 5875 5875 5875 5876 5876 5877 5877 5877 5877 5877 5878 5878 5877 5878 5878 5878 5878 5878 5878 5878 5878 5878 5878 5878 5878 5879 5879 5879 5878 5876 5875 5876 5876 5875 5874 5874 5873 5873 5873 5872 5872 5871 5871 5870 5869 5869 5868 5867 5868 5867 5866 5865 5864 5863 5863 5864 5864 5861 5860 5860 5860 5859 5858 5857 5854 5853 5852 5851 5852 5850 5849 5850 5852 5852 5848 5845 5845 5846 5847 5846 5846 5846 5846 5845 5844 5843
5871 5871 5872 5872 5872 5873 5873 5873 5874 5874 5874 5875 5875 5874 5875 5874 5874 5875 5875 5875 5875 5875 5875 5875 5875 5875 5875 5876 5876 5877 5876 5873 5872 5873 5873 5872 5871 5870 5870 5870 5870 5869 5869 5868 5867 5866 5866 5865 5864 5863 5864 5863 5862 5862 5860 5859 5859 5859 5860 5858 5857 5857 5856 5856 5855 5854 5851 5849 5847 5847 5848 5847 5845 5846 5849 5850 5844 5840 5841 5842 5843 5842 5842 5842 5842 5842 5841 5840
5868 5868 5868 5869 5869 5870 5870 5871 5871 5871 5871 5871 5871 5871 5871 5871 5871 5871 5871 5872 5872 5872 5872 5871 5872 5871 5872 5873 5873 5875 5873 5870 5870 5870 5870 5869 5869 5868 5867 5867 5867 5866 5866 5865 5864 5863 5862 5861 5860 5859 5860 5859 5859 5859 5856 5855 5856 5855 5855 5855 5855 5853 5853 5852 5852 5851 5847 5845 5843 5842 5845 5844 5841 5841 5845 5847 5840 5835 5837 5838 5838 5837 5838 5838 5837 5837 5837 5837
5864 5865 5865 5865 5866 5867 5867 5868 5868 5868 5868 5868 5868 5868 5868 5868 5868 5868 5868 5868 5868 5868 5868 5868 5868 5868 5869 5869 5871 5873 5869 5866 5868 5867 5866 5866 5865 5865 5865 5864 5864 5864 5863 5862 5861 5860 5859 5857 5857 5855 5855 5855 5855 5855 5853 5851 5852 5851 5850 5851 5852 5850 5849 5850 5849 5847 5842 5840 5840 5838 5840 5840 5838 5838 5841 5842 5835 5831 5834 5834 5834 5833 5833 5833 5832 5833 5832 5832
5861 5861 5862 5862 5863 5863 5864 5864 5865 5865 5865 5865 5865 5865 5865 5865 5865 5865 5865 5864 5865 5865 5864 5864 5864 5864 5865 5866 5869 5870 5866 5864 5865 5864 5863 5862 5862 5862 5862 5862 5861 5860 5860 5859 5858 5857 5856 5854 5853 5852 5851 5851 5852 5851 5849 5848 5847 5847 5846 5846 5848 5845 5845 5848 5845 5842 5837 5836 5836 5832 5835 5836 5835 5837 5837 5836 5831 5828 5830 5831 5830 5829 5829 5828 5827 5827 5827 5828
5858 5858 5858 5859 5859 5860 5861 5861 5861 5861 5862 5861 5861 5861 5861 5861 5861 5861 5861 5861 5860 5861 5860 5860 5860 5860 5860 5863 5866 5865 5863 5863 5862 5861 5859 5858 5859 5859 5859 5859 5858 5858 5857 5856 5855 5854 5853 5851 5849 5848 5847 5847 5848 5847 5846 5845 5843 5843 5841 5840 5844 5841 5841 5845 5841 5836 5833 5832 5832 5827 5828 5833 5833 5834 5834 5831 5827 5825 5825 5827 5827 5826 5826 5825 5823 5822 5822 5822
5854 5854 5854 5855 5856 5856 5857 5857 5857 5858 5858 5858 5858 5857 5857 5857 5857 5857 5857 5857 5856 5857 5857 5855 5855 5855 5855 5860 5863 5860 5859 5860 5859 5857 5855 5854 5856 5856 5856 5856 5855 5855 5854 5853 5852 5851 5849 5847 5845 5844 5843 5843 5844 5843 5842 5842 5840 5839 5837 5834 5838 5837 5838 5841 5836 5832 5830 5828 5828 5823 5821 5828 5832 5831 5830 5827 5823 5822 5822 5823 5823 5823 5822 5821 5820 5818 5818 5817
5850 5850 5850 5851 5851 5852 5853 5853 5853 5854 5854 5854 5854 5853 5853 5853 5853 5853 5853 5853 5853 5852 5852 5851 5851 5850 5850 5856 5859 5857 5856 5855 5854 5852 5850 5851 5852 5853 5853 5853 5852 5852 5851 5849 5848 5847 5845 5843 5840 5839 5839 5839 5840 5839 5838 5837 5836 5836 5832 5830 5832 5829 5832 5837 5832 5829 5828 5825 5824 5818 5814 5822 5829 5828 5827 5824 5820 5819 5818 5819 5820 5819 5819 5818 5817 5815 5814 5813
5845 5846 5846 5846 5847 5847 5848 5848 5849 5849 5850 5850 5850 5849 5848 5848 5848 5849 5848 5848 5848 5848 5847 5847 5847 5846 5845 5851 5855 5853 5851 5850 5849 5848 5847 5848 5848 5849 5849 5848 5848 5848 5847 5846 5845 5843 5841 5838 5836 5834 5834 5835 5836 5835 5833 5832 5832 5832 5827 5826 5827 5822 5824 5831 5831 5828 5826 5822 5820 5815 5810 5815 5823 5826 5824 5820 5818 5816 5814 5816 5817 5816 5816 5814 5813 5812 5810 5810
5841 5841 5841 5842 5842 5843 5843 5844 5844 5845 5845 5846 5845 5844 5844 5843 5844 5844 5844 5844 5843 5843 5843 5841 5842 5841 5840 5846 5850 5848 5847 5846 5844 5844 5844 5844 5844 5845 5845 5844 5844 5843 5842 5841 5840 5839 5836 5833 5831 5830 5830 5832 5834 5832 5828 5826 5828 5830 5822 5819 5820 5818 5817 5822 5828 5828 5823 5818 5815 5811 5806 5809 5816 5821 5820 5817 5816 5813 5811 5813 5814 5813 5812 5811 5810 5808 5807 5807
5836 5836 5837 5837 5837 5838 5838 5839 5839 5840 5840 5841 5840 5840 5839 5838 5839 5839 5839 5839 5839 5838 5837 5836 5838 5835 5834 5841 5843 5843 5843 5841 5840 5840 5840 5840 5840 5841 5840 5840 5840 5839 5837 5836 5835 5834 5831 5828 5825 5824 5826 5829 5832 5829 5822 5820 5823 5824 5818 5813 5813 5814 5812 5813 5821 5825 5821 5814 5810 5806 5802 5803 5811 5815 5815 5814 5813 5810 5809 5809 5810 5810 5809 5807 5806 5805 5804 5803
5831 5832 5832 5832 5832 5833 5833 5834 5834 5835 5835 5835 5835 5835 5834 5833 5834 5834 5834 5834 5833 5833 5832 5831 5832 5829 5830 5835 5836 5837 5838 5837 5836 5836 5836 5836 5836 5836 5835 5835 5835 5834 5832 5831 5831 5829 5826 5823 5820 5818 5822 5827 5829 5824 5817 5816 5818 5816 5813 5809 5806 5808 5807 5807 5813 5819 5816 5809 5804 5801 5797 5798 5804 5808 5810 5811 5809 5806 5805 5806 5806 5807 5805 5803 5801 5801 5800 5798
5827 5827 5827 5827 5828 5828 5828 5829 5829 5830 5830 5830 5830 5830 5830 5829 5828 5828 5828 5828 5828 5828 5826 5826 5827 5824 5824 5829 5829 5830 5831 5832 5832 5831 5832 5833 5832 5831 5830 5830 5830 5828 5826 5826 5826 5823 5821 5818 5814 5814 5820 5825 5824 5818 5813 5813 5812 5809 5806 5804 5801 5801 5801 5804 5808 5811 5809 5801 5796 5796 5792 5791 5794 5798 5804 5806 5805 5802 5801 5802 5802 5801 5800 5799 5798 5797 5796 5794
5821 5822 5822 5822 5823 5823 5823 5824 5824 5825 5825 5825 5825 5825 5825 5824 5823 5823 5823 5823 5822 5822 5821 5820 5821 5820 5821 5822 5822 5822 5824 5825 5826 5827 5828 5828 5827 5826 5825 5825 5824 5822 5821 5822 5819 5816 5816 5811 5808 5813 5820 5821 5817 5813 5810 5809 5807 5804 5801 5799 5797 5796 5795 5800 5803 5804 5803 5792 5787 5789 5786 5783 5786 5790 5796 5798 5798 5798 5798 5798 5797 5797 5796 5794 5794 5793 5791 5789
5816 5816 5816 5817 5817 5818 5818 5818 5819 5819 5820 5820 5819 5819 5819 5819 5818 5818 5817 5817 5818 5817 5817 5816 5815 5816 5818 5816 5815 5816 5817 5819 5821 5823 5823 5822 5821 5820 5820 5820 5817 5816 5817 5815 5811 5811 5810 5803 5805 5814 5816 5813 5810 5808 5807 5805 5802 5799 5797 5795 5793 5793 5791 5794 5796 5797 5798 5785 5778 5782 5778 5775 5780 5783 5787 5791 5791 5793 5794 5794 5792 5792 5791 5790 5790 5789 5787 5786
5811 5811 5811 5812 5812 5812 5813 5813 5813 5813 5814 5814 5814 5814 5814 5813 5812 5812 5811 5811 5813 5813 5811 5812 5810 5810 5812 5810 5809 5811 5810 5813 5817 5817 5816 5815 5815 5815 5815 5813 5811 5811 5810 5808 5807 5808 5802 5798 5806 5812 5808 5805 5804 5804 5803 5800 5798 5795 5794 5791 5788 5790 5788 5787 5790 5792 5790 5779 5772 5775 5770 5768 5773 5776 5780 5784 5785 5787 5788 5788 5788 5787 5785 5785 5785 5784 5783 5782
5805 5806 5806 5806 5807 5807 5807 5807 5807 5807 5808 5808 5808 5808 5808 5808 5807 5806 5804 5803 5806 5809 5808 5807 5806 5804 5806 5804 5804 5805 5806 5809 5811 5810 5809 5809 5810 5809 5807 5806 5805 5803 5802 5803 5805 5801 5794 5794 5803 5804 5800 5800 5799 5799 5798 5795 5794 5791 5790 5787 5783 5787 5785 5780 5782 5784 5782 5775 5769 5768 5763 5760 5767 5769 5772 5778 5779 5780 5782 5782 5783 5782 5780 5780 5780 5779 5779 5778
5799 5800 5800 5801 5801 5801 5801 5801 5801 5801 5801 5801 5801 5801 5801 5802 5801 5800 5799 5796 5797 5802 5805 5803 5801 5799 5800 5800 5800 5800 5801 5803 5803 5803 5803 5802 5803 5802 5800 5800 5797 5795 5796 5799 5800 5794 5788 5791 5797 5796 5794 5794 5793 5793 5792 5790 5789 5787 5786 5784 5781 5783 5781 5776 5775 5774 5773 5770 5767 5764 5754 5750 5760 5765 5766 5772 5774 5774 5776 5776 5776 5776 5775 5775 5775 5774 5773 5772
5793 5794 5795 5795 5795 5795 5796 5795 5796 5796 5795 5795 5795 5795 5795 5795 5795 5794 5793 5791 5789 5794 5797 5796 5796 5796 5795 5796 5797 5797 5796 5796 5797 5797 5796 5795 5795 5794 5794 5793 5790 5791 5793 5794 5792 5785 5784 5789 5791 5789 5788 5788 5787 5786 5786 5786 5785 5783 5780 5780 5780 5778 5776 5773 5772 5768 5763 5762 5763 5762 5750 5740 5750 5759 5761 5767 5769 5768 5769 5769 5770 5772 5771 5768 5769 5769 5768 5767
5787 5788 5789 5789 5789 5790 5790 5789 5790 5790 5790 5790 5790 5790 5789 5789 5789 5788 5787 5786 5784 5787 5787 5785 5788 5792 5793 5793 5793 5793 5791 5790 5790 5790 5790 5789 5789 5788 5787 5787 5786 5788 5788 5786 5783 5778 5779 5786 5787 5784 5782 5781 5779 5779 5781 5783 5780 5776 5774 5776 5777 5774 5772 5769 5767 5764 5759 5757 5756 5756 5749 5737 5739 5750 5757 5761 5761 5759 5761 5763 5765 5767 5766 5763 5762 5763 5763 5763
5781 5781 5782 5783 5783 5783 5783 5783 5783 5784 5784 5784 5784 5784 5783 5783 5783 5783 5783 5780 5778 5779 5778 5776 5778 5784 5787 5788 5787 5787 5786 5785 5784 5784 5784 5783 5782 5782 5781 5781 5781 5781 5781 5779 5776 5774 5777 5780 5780 5778 5777 5774 5772 5774 5778 5777 5772 5770 5771 5771 5770 5770 5769 5766 5763 5761 5757 5755 5751 5748 5745 5738 5731 5738 5749 5752 5751 5751 5753 5757 5760 5761 5760 5758 5757 5757 5758 5759
5774 5775 5776 5776 5777 5777 5777 5776 5776 5776 5777 5777 5778 5777 5777 5777 5777 5778 5778 5774 5771 5770 5770 5772 5773 5774 5777 5778 5779 5780 5779 5779 5777 5776 5777 5776 5775 5775 5775 5775 5775 5774 5775 5772 5769 5771 5772 5772 5772 5772 5770 5768 5769 5771 5771 5769 5766 5767 5767 5765 5763 5763 5762 5761 5760 5757 5754 5751 5748 5743 5742 5739 5732 5732 5738 5740 5741 5744 5746 5749 5753 5755 5755 5753 5752 5752 5751 5752
5767 5768 5768 5769 5770 5771 5770 5770 5769 5769 5770 5770 5770 5770 5771 5771 5771 5773 5773 5768 5764 5762 5765 5769 5768 5765 5766 5767 5769 5771 5772 5771 5769 5768 5768 5768 5768 5768 5768 5768 5768 5767 5767 5765 5764 5767 5766 5765 5765 5763 5763 5764 5766 5766 5764 5762 5761 5762 5761 5759 5758 5757 5755 5755 5753 5751 5750 5746 5742 5741 5741 5739 5734 5730 5729 5729 5732 5736 5739 5742 5745 5747 5748 5748 5747 5746 5744 5745
5760 5761 5761 5762 5764 5764 5764 5764 5763 5763 5763 5762 5762 5763 5764 5764 5765 5767 5764 5761 5759 5760 5763 5762 5759 5757 5758 5758 5759 5761 5762 5762 5762 5762 5760 5760 5761 5761 5761 5761 5760 5760 5760 5758 5759 5761 5761 5760 5758 5757 5758 5759 5759 5758 5757 5757 5756 5756 5755 5754 5752 5750 5749 5747 5745 5745 5744 5740 5739 5741 5741 5740 5734 5727 5723 5722 5725 5728 5731 5735 5737 5737 5740 5742 5741 5740 5739 5739
5754 5755 5755 5755 5756 5757 5758 5758 5756 5756 5757 5756 5756 5756 5757 5757 5758 5758 5755 5755 5757 5756 5758 5754 5751 5751 5751 5750 5751 5751 5753 5754 5755 5755 5754 5754 5754 5754 5754 5754 5753 5752 5753 5753 5753 5756 5756 5753 5753 5753 5753 5752 5751 5751 5751 5750 5750 5750 5749 5747 5745 5743 5742 5739 5737 5737 5735 5734 5736 5738 5740 5739 5730 5724 5722 5721 5721 5722 5722 5726 5728 5729 5731 5734 5736 5735 5734 5734
5748 5748 5749 5749 5750 5752 5752 5752 5750 5750 5750 5752 5751 5749 5750 5749 5749 5750 5750 5752 5750 5748 5751 5749 5745 5746 5744 5743 5744 5744 5744 5746 5746 5747 5747 5747 5748 5748 5748 5747 5746 5745 5745 5747 5748 5748 5750 5749 5749 5748 5748 5748 5746 5745 5744 5744 5744 5743 5742 5741 5737 5735 5734 5730 5729 5730 5729 5731 5733 5734 5733 5729 5722 5721 5724 5722 5721 5720 5718 5717 5718 5720 5723 5726 5729 5728 5727 5729
5742 5742 5742 5743 5745 5745 5746 5746 5744 5743 5743 5744 5743 5742 5743 5741 5741 5745 5746 5746 5744 5742 5745 5742 5739 5740 5739 5739 5739 5737 5737 5738 5738 5738 5738 5739 5740 5741 5741 5740 5740 5738 5739 5741 5740 5741 5743 5745 5745 5742 5742 5744 5740 5739 5738 5737 5737 5735 5735 5733 5730 5728 5724 5720 5723 5724 5724 5726 5728 5726 5723 5718 5715 5718 5721 5720 5720 5719 5715 5713 5711 5713 5716 5717 5720 5721 5719 5721
5735 5735 5735 5737 5738 5738 5738 5737 5736 5736 5735 5735 5735 5735 5734 5734 5737 5740 5739 5740 5738 5737 5738 5736 5734 5735 5734 5734 5733 5731 5730 5730 5730 5730 5729 5730 5731 5732 5733 5733 5732 5731 5731 5732 5732 5734 5733 5737 5743 5738 5735 5738 5735 5732 5731 5730 5729 5728 5728 5725 5721 5721 5717 5713 5718 5719 5717 5718 5718 5716 5713 5711 5712 5714 5715 5715 5715 5714 5711 5710 5708 5708 5709 5708 5710 5712 5711 5713
5728 5728 5728 5730 5730 5730 5730 5729 5729 5728 5726 5726 5727 5725 5726 5730 5734 5734 5733 5734 5732 5731 5733 5732 5730 5729 5729 5729 5728 5727 5725 5722 5722 5722 5721 5721 5722 5723 5726 5725 5724 5723 5722 5720 5722 5724 5721 5726 5737 5731 5727 5731 5730 5727 5726 5722 5721 5722 5721 5716 5713 5716 5714 5709 5709 5711 5709 5706 5706 5706 5701 5704 5710 5710 5711 5711 5708 5707 5706 5705 5706 5705 5703 5701 5700 5703 5703 5704
5720 5721 5721 5723 5723 5722 5721 5721 5721 5719 5717 5717 5716 5716 5722 5726 5727 5727 5726 5727 5725 5724 5725 5725 5725 5724 5723 5723 5722 5722 5720 5716 5715 5714 5713 5713 5713 5716 5719 5718 5718 5716 5715 5713 5712 5713 5709 5712 5723 5722 5718 5723 5722 5720 5720 5715 5713 5713 5712 5710 5710 5711 5709 5703 5698 5702 5702 5694 5695 5699 5694 5696 5702 5701 5704 5706 5703 5703 5702 5701 5702 5698 5696 5696 5694 5695 5697 5697
5713 5713 5714 5716 5716 5713 5713 5713 5712 5710 5708 5707 5705 5709 5717 5719 5719 5720 5719 5720 5719 5717 5717 5716 5717 5718 5716 5715 5717 5717 5713 5710 5709 5706 5706 5706 5704 5708 5712 5711 5710 5708 5708 5707 5703 5703 5700 5698 5708 5712 5709 5710 5711 5710 5710 5708 5706 5704 5704 5708 5708 5702 5700 5697 5689 5689 5691 5682 5683 5692 5690 5689 5692 5692 5696 5698 5695 5698 5698 5696 5696 5690 5688 5690 5689 5688 5690 5689
5704 5705 5707 5709 5707 5704 5705 5704 5702 5702 5699 5697 5698 5703 5709 5710 5712 5713 5712 5712 5710 5708 5707 5706 5707 5709 5708 5707 5710 5711 5706 5703 5702 5699 5699 5698 5695 5700 5705 5704 5701 5700 5701 5700 5694 5694 5693 5687 5693 5704 5701 5697 5699 5698 5697 5698 5697 5695 5696 5700 5699 5692 5690 5689 5682 5678 5679 5674 5671 5679 5682 5683 5686 5688 5691 5690 5687 5689 5688 5686 5687 5683 5680 5683 5684 5683 5683 5682
5696 5696 5699 5702 5698 5695 5695 5693 5692 5693 5689 5687 5692 5697 5701 5702 5704 5704 5703 5702 5701 5699 5697 5697 5698 5698 5698 5699 5701 5702 5700 5696 5694 5693 5691 5688 5688 5694 5698 5695 5693 5692 5692 5692 5687 5686 5686 5678 5679 5693 5696 5689 5689 5691 5689 5689 5688 5686 5684 5685 5684 5683 5681 5678 5673 5670 5669 5664 5660 5663 5666 5672 5683 5686 5685 5685 5682 5681 5680 5676 5675 5674 5672 5674 5676 5675 5675 5677
5688 5687 5692 5695 5690 5686 5686 5683 5682 5682 5679 5681 5686 5689 5692 5693 5694 5695 5694 5692 5691 5689 5688 5689 5688 5686 5688 5691 5692 5692 5691 5688 5686 5685 5682 5680 5682 5686 5690 5688 5687 5687 5685 5685 5681 5678 5677 5672 5668 5678 5685 5681 5682 5686 5683 5681 5680 5676 5673 5673 5672 5673 5671 5666 5662 5661 5661 5655 5651 5650 5647 5656 5678 5685 5679 5680 5677 5673 5673 5670 5667 5667 5665 5665 5667 5666 5667 5669
5678 5679 5684 5686 5681 5677 5676 5672 5672 5674 5672 5673 5678 5680 5681 5683 5685 5687 5686 5682 5681 5679 5678 5678 5678 5678 5678 5681 5683 5683 5680 5677 5677 5676 5673 5674 5676 5677 5681 5683 5682 5681 5680 5678 5675 5670 5668 5664 5660 5663 5669 5671 5675 5679 5674 5671 5671 5668 5664 5663 5663 5664 5662 5655 5649 5651 5653 5645 5641 5640 5632 5638 5667 5680 5674 5673 5671 5666 5666 5664 5662 5663 5660 5658 5659 5658 5658 5658
5669 5670 5674 5674 5670 5668 5666 5661 5663 5666 5664 5665 5671 5672 5671 5672 5675 5677 5676 5673 5670 5669 5668 5667 5668 5670 5669 5670 5672 5673 5670 5665 5666 5667 5665 5667 5669 5668 5673 5677 5675 5674 5672 5669 5666 5663 5661 5657 5651 5651 5655 5658 5663 5668 5665 5661 5660 5658 5654 5654 5656 5655 5653 5647 5639 5641 5643 5635 5632 5632 5620 5623 5652 5672 5670 5666 5664 5660 5659 5658 5656 5656 5655 5652 5652 5650 5649 5647
5660 5661 5663 5663 5660 5657 5654 5652 5654 5656 5656 5660 5663 5662 5660 5662 5665 5667 5668 5665 5660 5658 5658 5658 5659 5659 5658 5659 5660 5660 5660 5655 5654 5657 5658 5658 5659 5663 5667 5669 5667 5664 5661 5658 5657 5658 5655 5649 5644 5643 5644 5646 5649 5654 5655 5653 5650 5647 5645 5648 5648 5645 5645 5641 5634 5633 5631 5625 5626 5623 5610 5615 5643 5660 5660 5658 5657 5653 5652 5653 5650 5647 5647 5645 5643 5642 5641 5638
5650 5651 5652 5651 5650 5646 5642 5644 5648 5647 5647 5650 5651 5651 5652 5652 5655 5660 5661 5656 5651 5649 5648 5648 5649 5648 5648 5649 5648 5648 5649 5645 5641 5647 5650 5647 5650 5658 5662 5660 5658 5655 5651 5648 5648 5648 5645 5640 5638 5637 5634 5635 5638 5641 5644 5646 5643 5638 5637 5640 5639 5637 5637 5632 5628 5625 5617 5615 5621 5612 5599 5612 5637 5646 5646 5648 5649 5647 5648 5649 5646 5641 5639 5638 5635 5633 5632 5631
5639 5640 5641 5639 5638 5637 5635 5637 5639 5637 5636 5639 5638 5639 5642 5642 5646 5653 5652 5646 5643 5641 5639 5637 5639 5639 5638 5638 5637 5637 5638 5636 5632 5634 5638 5638 5642 5648 5652 5651 5649 5645 5643 5641 5639 5636 5634 5630 5630 5629 5625 5624 5628 5632 5637 5640 5635 5629 5628 5631 5631 5631 5629 5624 5621 5614 5605 5607 5612 5602 5593 5607 5626 5631 5633 5637 5640 5640 5642 5643 5641 5636 5632 5629 5626 5624 5624 5624
5629 5630 5630 5628 5625 5626 5628 5630 5629 5626 5627 5628 5626 5627 5631 5632 5636 5641 5640 5636 5636 5635 5629 5627 5629 5630 5629 5628 5627 5626 5626 5627 5624 5622 5624 5628 5632 5636 5640 5640 5638 5636 5636 5633 5629 5625 5621 5617 5619 5618 5614 5614 5618 5623 5629 5629 5623 5619 5620 5622 5623 5623 5621 5618 5610 5602 5601 5601 5595 5593 5595 5598 5606 5616 5621 5625 5629 5630 5632 5634 5632 5628 5624 5620 5618 5616 5616 5616
5618 5619 5620 5617 5613 5616 5620 5622 5620 5617 5618 5618 5614 5616 5621 5623 5624 5626 5627 5626 5627 5626 5620 5617 5620 5621 5620 5620 5617 5613 5615 5616 5614 5613 5613 5615 5619 5623 5626 5627 5627 5628 5628 5623 5619 5616 5607 5603 5607 5607 5602 5604 5607 5611 5617 5615 5607 5607 5609 5609 5610 5611 5610 5606 5597 5594 5599 5590 5576 5585 5596 5588 5588 5603 5610 5613 5618 5618 5620 5623 5620 5617 5615 5612 5611 5610 5608 5608
5608 5610 5609 5606 5605 5608 5610 5611 5610 5608 5607 5607 5605 5606 5611 5613 5613 5613 5614 5615 5615 5615 5610 5607 5610 5611 5610 5609 5605 5601 5604 5606 5604 5605 5604 5602 5604 5607 5612 5617 5618 5617 5617 5612 5610 5608 5596 5590 5596 5596 5591 5594 5597 5598 5602 5601 5594 5594 5594 5594 5597 5599 5597 5593 5587 5588 5590 5576 5564 5576 5584 5575 5577 5589 5594 5599 5604 5605 5606 5608 5608 5608 5607 5605 5603 5601 5599 5598
5598 5599 5598 5596 5597 5600 5600 5598 5599 5598 5598 5597 5595 5597 5600 5602 5602 5602 5602 5602 5602 5604 5602 5598 5598 5599 5597 5597 5595 5593 5595 5595 5593 5594 5594 5592 5592 5593 5596 5602 5606 5606 5604 5599 5599 5598 5589 5581 5586 5587 5580 5581 5586 5586 5587 5587 5583 5581 5581 5582 5584 5585 5585 5582 5578 5580 5578 5566 5561 5568 5566 5562 5570 5576 5578 5582 5587 5588 5589 5590 5592 5595 5597 5596 5595 5591 5586 5583
5588 5588 5588 5587 5588 5591 5589 5587 5588 5587 5588 5589 5587 5588 5590 5590 5590 5591 5591 5590 5589 5591 5592 5588 5586 5587 5587 5587 5587 5585 5586 5586 5583 5583 5585 5582 5582 5583 5581 5584 5590 5593 5591 5588 5587 5587 5580 5573 5576 5578 5569 5567 5574 5575 5574 5574 5571 5568 5569 5572 5572 5571 5571 5571 5568 5569 5566 5557 5557 5560 5551 5548 5560 5567 5566 5567 5569 5570 5570 5572 5575 5578 5581 5581 5579 5575 5570 5567
5577 5577 5578 5577 5578 5581 5580 5578 5578 5576 5577 5581 5579 5577 5579 5580 5580 5580 5581 5580 5578 5577 5580 5578 5575 5577 5578 5577 5577 5575 5575 5577 5575 5575 5577 5574 5572 5575 5572 5572 5576 5578 5578 5580 5578 5576 5572 5565 5566 5568 5558 5554 5563 5564 5561 5562 5559 5553 5555 5561 5564 5562 5559 5559 5559 5560 5556 5550 5548 5547 5540 5539 5549 5555 5553 5553 5554 5554 5555 5558 5560 5561 5561 5560 5560 5560 5559 5558
5567 5565 5567 5567 5567 5571 5571 5568 5568 5567 5568 5573 5570 5565 5568 5571 5569 5568 5569 5570 5568 5567 5568 5567 5565 5566 5566 5567 5568 5567 5565 5565 5565 5566 5567 5564 5563 5565 5564 5564 5566 5566 5566 5569 5568 5567 5565 5558 5557 5557 5547 5545 5554 5555 5551 5551 5543 5536 5544 5555 5558 5555 5551 5548 5548 5548 5548 5544 5538 5534 5532 5534 5537 5537 5536 5539 5542 5543 5545 5547 5545 5544 5544 5545 5547 5548 5548 5548